Hourly Weather Roundup
Issued by NWS Central Illinois

Home | Current Version | Previous Version | Graphics & Text | Print | Product List | Glossary On
Versions: 1 2 3 4 5 6 7 8 9 10 11 12 13 14 15 16 17 18 19 20 21 22 23 24 25 26 27 28 29 30 31 32 33 34 35 36 37 38 39 40 41 42 43 44 45 46 47 48 49 50
869
NZUS43 KILX 281810
HWRILX

Area Weather Roundup
National Weather Service Lincoln IL
100 PM CDT WED JUN 28 2017

NOTE:  "FAIR" indicates few or no clouds below 12,000 feet, with
       no sigificant weather and/or obstructions to visibility.


CITY           SKY/WX    TMP DP  RH WIND       PRES   REMARKS
Bloomington    CLOUDY    78  64  61 S26G35    29.92F HX  80
6HR MIN TEMP:  59; 6HR MAX TEMP:  79;

Champaign      CLOUDY    81  60  48 S21       30.01F HX  82
6HR MIN TEMP:  62; 6HR MAX TEMP:  81;

Danville       MOSUNNY   77  59  52 S15G24    30.01F
6HR MIN TEMP:  58; 6HR MAX TEMP:  78;

Decatur        CLOUDY    80  62  54 S18       29.99F HX  81
6HR MIN TEMP:  62; 6HR MAX TEMP:  81;

Effingham      CLOUDY    82  64  53 S13G21    30.04F HX  83
6HR MIN TEMP:  62; 6HR MAX TEMP:  82;

Flora          PTSUNNY   84  63  49 S14G22    30.04F HX  84
6HR MIN TEMP:  62; 6HR MAX TEMP:  84;

Galesburg      CLOUDY    76  67  72 S15G21    29.86F
6HR MIN TEMP:  65; 6HR MAX TEMP:  76; 6HR PCP:  0.17;

Jacksonville   PTSUNNY   79  65  60 S14G20    29.91S HX  81
6HR MIN TEMP:  66; 6HR MAX TEMP:  80;

Lacon          PTSUNNY   74  66  77 S14G26    29.87F
6HR MIN TEMP:  64; 6HR MAX TEMP:  74; 6HR PCP:  0.26;

Lawrenceville  MOSUNNY   80  58  46 S14       30.07F HX  80
6HR MIN TEMP:  59; 6HR MAX TEMP:  82;

Litchfield     CLOUDY    79  65  62 S16G22    29.99F HX  81
6HR MIN TEMP:  62; 6HR MAX TEMP:  79;

$$


CITY           SKY/WX    TMP DP  RH WIND       PRES   REMARKS
Lincoln        CLOUDY    80  66  61 S16G25    29.92F HX  82
6HR MIN TEMP:  63; 6HR MAX TEMP:  80;

Macomb         PTSUNNY   79  65  63 S16G26    29.88S HX  81
6HR MIN TEMP:  66; 6HR MAX TEMP:  79;

Mattoon        PTSUNNY   79  63  57 S13G22    30.03F HX  80
6HR MIN TEMP:  61; 6HR MAX TEMP:  80;

Mt Carmel AP   CLOUDY    80  59  48 S13       30.06F HX  81
6HR MIN TEMP:  58; 6HR MAX TEMP:  81;

Olney-Noble AP CLOUDY    80  65  59 SE13      30.05F HX  82
Paris AP       MOSUNNY   79  61  54 S15G23    30.05F HX  80
6HR MIN TEMP:  58; 6HR MAX TEMP:  79;

Peoria         CLOUDY    79  67  66 S14       29.89F HX  81
6HR MIN TEMP:  63; 6HR MAX TEMP:  79; 6HR PCP:  0.12;

Pontiac        CLOUDY    79  65  62 S20       29.93F HX  80
6HR MIN TEMP:  62; 6HR MAX TEMP:  79;

Rantoul        CLOUDY    82  62  52 S15G24    30.00F HX  82
6HR MIN TEMP:  59; 6HR MAX TEMP:  82;

Robinson       MOSUNNY   79  59  49 S13       30.07F HX  80
6HR MIN TEMP:  58; 6HR MAX TEMP:  81;

Springfield    PTSUNNY   81  66  60 S20G30    29.93F HX  83
6HR MIN TEMP:  66; 6HR MAX TEMP:  81;

Taylorville    CLOUDY    79  64  60 S15G23    29.98F HX  80
6HR MIN TEMP:  62; 6HR MAX TEMP:  80;

$$

...REGIONAL REPORTS...


CITY           SKY/WX    TMP DP  RH WIND       PRES   REMARKS
Chicago O`Hare CLOUDY    65  59  81 S17G28    29.91F
Kankakee       CLOUDY    75  59  57 S13       29.99F
Moline         CLOUDY    76  66  71 S14G26    29.80R
Mount Sterling CLOUDY    79  66  65 S26G36    29.86F HX  81
Mount Vernon   PTSUNNY   83  65  54 S16       30.03F HX  85
Pittsfield     CLOUDY    79  66  64 S18G26    29.90F HX  81
Quincy         MOSUNNY   81  66  60 S22G32    29.84F HX  83
Rockford       CLOUDY    71  64  78 S24       29.86F
$$


CITY           SKY/WX    TMP DP  RH WIND       PRES   REMARKS
Burlington     CLOUDY    80  69  69 S20G29    29.83F HX  83
Cedar Rapids   CLOUDY    76  69  79 S18G26    29.74F
Des Moines     MOSUNNY   84  68  58 S21G29    29.69F HX  87
Kirksville     CLOUDY    82  68  62 SW17G30   29.85S HX  85
Ottumwa        PTSUNNY   81  68  64 S23G35    29.76F HX  84
St Louis       CLOUDY    86  64  47 S14G22    29.97F HX  87
$$


CITY           SKY/WX    TMP DP  RH WIND       PRES   REMARKS
Terre Haute    MOSUNNY   80  56  43 S13       30.06F HX  80
Evansville     CLOUDY    83  57  41 S12       30.08F HX  82
Indianapolis   CLOUDY    76  56  49 S14       30.08F
Lafayette      PTSUNNY   76  58  53 S13G22    30.04F
Madison        LGT RAIN  65  63  93 SW8       29.82S
Milwaukee      CLOUDY    65  60  84 S16       29.88R
$$






USA.gov is the U.S. government's official web portal to all federal, state and local government web resources and services.